User: anonymous
Location: Sewell
(39.7660°N, 75.1450°W)
Time: 21:39:38
(UTC-04:00)
Language:

ISS - Orbit

View from above orbital plane
View from above orbital plane
View from above satellite
View from above satellite

Ground track
Ground track

The orbit data is extracted from the following two-line orbital elements,

1 25544U 98067A   14203.62362632  .00001089  00000-0  26960-4 0  7476
2 25544 051.6489 283.9330 0005348 284.6380 179.9858 15.50134591896828
Epoch (UTC): 22 July 2014 14:58:01
Eccentricity: 0.0005348
inclination: 51.6489°
perigee height: 413 km
apogee height: 420 km
right ascension of ascending node: 283.9330°
argument of perigee: 284.6380°
revolutions per day: 15.50134591
mean anomaly at epoch: 179.9858°
orbit number at epoch: 89682

The dashed part of the orbit path shows where the satellite is in the earth's shadow,  

DLR